Flag for Germany Weather past 2 weeks in Sonneberg, Thuringia, Germany

Now
36 °F

Snow flurries. Cloudy.


Feels Like: 25 °F
Forecast: 29 / 33 °F
Wind: 20 mph from West

Location: Hof Airport

Current Time: Apr 1, 2015 at 1:41:00 PM

Latest Report: Apr 1, 2015 at 1:20 PM


Visibility: N/A

Pressure: 29.89 "Hg

Humidity: 70%

Dew point: 27 °F

Location of SonnebergLocation

Historic Weather in Sonneberg — Graph

°F

Sonneberg temperature yesterday

Maximum temperature yesterday: 48 °F (at 9:20 AM)
Minimum temperature yesterday: 37 °F (at 6:50 AM)
Average temperature yesterday: 44 °F

Past Weeks' High & Low Weather Summary

 TemperatureHumidityPressure
High61 °F (Mar 25, 1:50 PM)100% (Mar 22, 9:50 AM)30.30 "Hg (Mar 22, 9:50 AM)
Low27 °F (Mar 23, 5:50 AM)19% (Mar 20, 3:50 PM)29.27 "Hg (Mar 31, 8:50 AM)
Average44 °F65%29.91 "Hg
* Reported Mar 17 11:20 AM — Apr 1 12:20 PM, Sonneberg, Weather by CustomWeather, © 2015

Note: Actual official high and low records may vary slightly from our data, if they occured in-between our weather recording intervals... More about our weather records

Advertising

Sonneberg weather history for previous 24 hours

 ConditionsComfort  
Time TempWeatherWind HumidityBarometerVisibility
12:20 PM
Wed, Apr 1
34 °FLight snow. Fog.16 mph81%29.89 "Hg3 mi
11:50 AM36 °FMore clouds than sun.20 mph70%29.86 "HgN/A
10:50 AM34 °FBroken clouds.23 mph75%29.86 "HgN/A
10:20 AM36 °FBroken clouds.26 mph70%29.83 "HgN/A
9:50 AM34 °FLight snow. Broken clouds.25 mph70%29.80 "Hg4 mi
9:20 AM34 °FBroken clouds.20 mph75%29.80 "HgN/A
8:50 AM32 °FBroken clouds.20 mph80%29.80 "Hg5 mi
8:20 AM32 °FBroken clouds.22 mph75%29.77 "HgN/A
7:50 AM32 °FBroken clouds.18 mph87%29.77 "HgN/A
7:20 AM32 °FLight snow. Partly cloudy.16 mph87%29.77 "Hg1 mi
6:59 AM32 °FSnow. Partly cloudy.15 mph80%29.74 "Hg2 mi
7:50 PM
Tue, Mar 31
41 °FPartly sunny.25 mph53%29.59 "HgN/A
7:20 PM43 °FScattered clouds.31 mph49%29.56 "HgN/A
6:50 PM43 °FScattered clouds.25 mph57%29.53 "HgN/A
6:20 PM45 °FScattered clouds.30 mph53%29.50 "HgN/A
5:50 PM45 °FScattered clouds.39 mph57%29.47 "HgN/A
5:20 PM45 °FScattered clouds.31 mph61%29.47 "HgN/A
4:50 PM45 °FPassing clouds.30 mph66%29.45 "HgN/A
4:20 PM43 °FLight rain. Scattered clouds.30 mph76%29.45 "Hg6 mi
3:50 PM41 °FRain. Partly sunny.25 mph81%29.42 "Hg3 mi
3:20 PM46 °FPassing clouds.24 mph71%29.42 "HgN/A
2:50 PM46 °FScattered clouds.31 mph76%29.39 "HgN/A
2:20 PM45 °FSprinkles. Scattered clouds.31 mph81%29.39 "HgN/A
1:50 PM45 °FScattered clouds.37 mph76%29.36 "HgN/A
1:20 PM45 °FRain showers. Scattered clouds.33 mph76%29.36 "Hg4 mi
Weather by CustomWeather, © 2015

See weather overviewHow to use our weather pages